Aeroporto :
LOGIN :

Iscrizione | Disclaimer

   EN    FR    IT 

 










Sommario :    VFR   VFR Marginale   IFR   IFR Intensivo   IFR Molto Intensivo
Visibilità : 
Base nubi : 
>= 8 km
>= 3000ft
5 / 8 km
1000 / 3000 ft
1500m / 5 km
500 / 1000 ft
800 / 1500m
200 / 500 ft
< 800m
< 200 ft
Simboli :   Temporali  Nebbia  Neve Forte  Precipitazioni Forti  Vento > 20 kt
SIGMETs :   Varie  Temporali  Ghiacco  Turbolenza  Onda orograficha  Ceneri Vulcaniche







- Altitudine del aeroporto : 13 ft
- Codice IATA : OST


EBOS - Oostend bruges Int.

ULTIMO METAR :
  • 171950Z 09006KT CAVOK 20/13 Q1012 NOSIG

METARs OBSOLETI :
  • 171920Z 08007KT CAVOK 21/14 Q1012 NOSIG
  • 171850Z 07007KT CAVOK 22/14 Q1012 NOSIG
  • 171820Z 07006KT CAVOK 22/14 Q1012 NOSIG
  • 171750Z 05007KT CAVOK 21/14 Q1013 NOSIG
  • 171720Z 04006KT 9999 FEW045 21/15 Q1013 NOSIG

TAF TAF EBOS
Valido dal 17 a 18 ore il 19 a 00 ore UTC


171702Z 1718/1824 12003KT 9999 FEW030
BECMG 1802/1804 24013KT
PROB30
TEMPO 1814/1816 BKN014
Nessun NOTAM noto per questo aeroporto.



MetMap, La meteo Aeronautica in un colpo d'occhio ! - Copyright ORBIFLY Dicembre 2007 - Disclaimer

ORBIFLY MET'MAP TEAM :

Programmazione e sviluppo : Alexandra Zaïnal
Concezione e sviluppo : Baudouin d'Aumeries
Co-Programmazione e sviluppo : Marc-Olivier Méhu
Supporto tecnico e logistico : Manuel Goepfert
Aiuto per la traduzione : Arnaldo La Scala

Contatto : metmap@orbifly.com




FONTI E CREDITI :

   NOAA